HULIANWAN GAOGUI-01 (H*)

Last updated on Sat Jul 05 2025 00:02:48 GMT+0000 (Coordinated Universal Time)

1 59069U 24040A 25185.50064538 .00000170 00000+0 00000+0 0 9997 2 59069 0.0282 325.0388 0002056 59.6765 111.9053 1.00271725 3843
UTC large
Height (km)
Speed (km/s)
/
Latitude / Longitude
Inclination (degrees)
Orbital Period (minutes)
Azimuth
Elevation
Range (km)
Doppler Factor

Next 0 passes for location: London (51.5072 / 0.1276)

Sorry there are no passes over London.